When you browse on this site, cookies collect data to enhance your experience and personalize the content and advertising you see.
Visit our Privacy Policy to learn more. By continuing to use the site, you agree to this use of cookies and data.

Previsão horária em Pert

Hoje, 15 Agosto, Sábado

Tempo Temperatura Precipitação Vento Pressão Humidade
00:00 +12°C° 0 mm 3 m/s 759 mmHg 84%
01:00 +12°C° 0 mm 3 m/s 759 mmHg 84%
02:00 +11°C° 0 mm 3 m/s 759 mmHg 82%
03:00 +11°C° 0 mm 3 m/s 758 mmHg 82%
04:00 +11°C° 0 mm 3 m/s 758 mmHg 81%
05:00 +11°C° 0 mm 4 m/s 758 mmHg 80%
06:00 +11°C° 0 mm 4 m/s 758 mmHg 79%
07:00 +11°C° 0 mm 4 m/s 757 mmHg 78%
08:00 +11°C° 0 mm 6 m/s 757 mmHg 77%
09:00 +14°C° 0 mm 6 m/s 757 mmHg 67%
10:00 +16°C° 0 mm 7 m/s 756 mmHg 58%
11:00 +18°C° 0 mm 7 m/s 756 mmHg 48%
12:00 +20°C° 0 mm 7 m/s 755 mmHg 48%
13:00 +21°C° 0 mm 6 m/s 754 mmHg 47%
14:00 +21°C° 0 mm 6 m/s 753 mmHg 47%
15:00 +20°C° 0.1 mm 6 m/s 753 mmHg 53%
16:00 +19°C° 0.1 mm 6 m/s 752 mmHg 59%
17:00 +17°C° 0.1 mm 7 m/s 752 mmHg 65%
18:00 +16°C° 1.5 mm 7 m/s 752 mmHg 73%
19:00 +15°C° 1.5 mm 7 m/s 751 mmHg 81%
20:00 +15°C° 1.5 mm 7 m/s 751 mmHg 89%
21:00 +15°C° 2.6 mm 7 m/s 751 mmHg 86%
22:00 +16°C° 2.6 mm 7 m/s 750 mmHg 83%
23:00 +17°C° 2.6 mm 8 m/s 750 mmHg 80%

Amanhã, 16 Agosto, Domingo

Tempo Temperatura Precipitação Vento Pressão Humidade
00:00 +16°C° 0.6 mm 7 m/s 750 mmHg 78%
01:00 +15°C° 0.6 mm 7 m/s 750 mmHg 76%
02:00 +14°C° 0.6 mm 7 m/s 750 mmHg 75%
03:00 +14°C° 0.3 mm 7 m/s 751 mmHg 75%
04:00 +12°C° 0.3 mm 7 m/s 751 mmHg 75%
05:00 +12°C° 0.3 mm 7 m/s 752 mmHg 75%
06:00 +12°C° 0.6 mm 7 m/s 752 mmHg 75%
07:00 +11°C° 0.6 mm 7 m/s 753 mmHg 74%
08:00 +11°C° 0.6 mm 7 m/s 753 mmHg 73%
09:00 +11°C° 0.5 mm 7 m/s 753 mmHg 72%
10:00 +12°C° 0.5 mm 7 m/s 754 mmHg 70%
11:00 +12°C° 0.5 mm 7 m/s 754 mmHg 69%
12:00 +12°C° 0.4 mm 7 m/s 754 mmHg 66%
13:00 +13°C° 0.4 mm 8 m/s 754 mmHg 63%
14:00 +13°C° 0.4 mm 8 m/s 754 mmHg 60%
15:00 +13°C° 0.3 mm 8 m/s 754 mmHg 62%
16:00 +12°C° 0.3 mm 7 m/s 755 mmHg 65%
17:00 +12°C° 0.3 mm 7 m/s 755 mmHg 67%
18:00 +12°C° 0.1 mm 7 m/s 756 mmHg 68%
19:00 +11°C° 0.1 mm 7 m/s 756 mmHg 69%
20:00 +11°C° 0.1 mm 7 m/s 756 mmHg 70%
21:00 +11°C° 0.3 mm 7 m/s 756 mmHg 71%
22:00 +12°C° 0.3 mm 7 m/s 757 mmHg 73%
23:00 +12°C° 0.3 mm 8 m/s 757 mmHg 74%

Depois de amanhã, 17 Agosto, Segunda-feira

Tempo Temperatura Precipitação Vento Pressão Humidade
00:00 +12°C° 0.1 mm 7 m/s 757 mmHg 73%
01:00 +11°C° 0.1 mm 7 m/s 757 mmHg 71%
02:00 +11°C° 0.1 mm 7 m/s 757 mmHg 70%
03:00 +11°C° 0.1 mm 7 m/s 757 mmHg 70%
04:00 +11°C° 0.1 mm 6 m/s 758 mmHg 70%
05:00 +11°C° 0.1 mm 6 m/s 758 mmHg 70%
06:00 +11°C° 0.1 mm 6 m/s 758 mmHg 71%
07:00 +12°C° 0.1 mm 5 m/s 759 mmHg 71%
08:00 +12°C° 0.1 mm 5 m/s 759 mmHg 71%
09:00 +13°C° 0.1 mm 6 m/s 759 mmHg 70%
10:00 +13°C° 0.1 mm 6 m/s 760 mmHg 68%
11:00 +14°C° 0.1 mm 6 m/s 760 mmHg 67%
12:00 +14°C° 0.1 mm 6 m/s 760 mmHg 68%
13:00 +14°C° 0.1 mm 6 m/s 759 mmHg 69%
14:00 +14°C° 0.1 mm 6 m/s 759 mmHg 70%
15:00 +14°C° 0.1 mm 6 m/s 759 mmHg 70%
16:00 +14°C° 0.1 mm 5 m/s 759 mmHg 70%
17:00 +14°C° 0.1 mm 5 m/s 760 mmHg 70%
18:00 +13°C° 0.1 mm 5 m/s 760 mmHg 71%
19:00 +13°C° 0.1 mm 4 m/s 760 mmHg 72%
20:00 +13°C° 0.1 mm 4 m/s 761 mmHg 73%
21:00 +13°C° 0.1 mm 4 m/s 761 mmHg 74%
22:00 +12°C° 0.1 mm 3 m/s 761 mmHg 74%
23:00 +12°C° 0.1 mm 3 m/s 761 mmHg 75%

18 Agosto, Terça-feira

Tempo Temperatura Precipitação Vento Pressão Humidade
00:00 +12°C° 0 mm 3 m/s 761 mmHg 75%
01:00 +12°C° 0 mm 3 m/s 761 mmHg 75%
02:00 +12°C° 0 mm 3 m/s 761 mmHg 75%
03:00 +12°C° 0 mm 3 m/s 761 mmHg 74%
04:00 +12°C° 0 mm 3 m/s 761 mmHg 74%
05:00 +12°C° 0 mm 3 m/s 761 mmHg 74%
06:00 +12°C° 0 mm 3 m/s 761 mmHg 74%
07:00 +13°C° 0 mm 3 m/s 762 mmHg 75%
08:00 +13°C° 0 mm 3 m/s 762 mmHg 75%
09:00 +14°C° 0.1 mm 3 m/s 762 mmHg 71%
10:00 +15°C° 0.1 mm 4 m/s 763 mmHg 68%
11:00 +15°C° 0.1 mm 4 m/s 763 mmHg 64%
12:00 +17°C° 0.1 mm 4 m/s 762 mmHg 63%
13:00 +16°C° 0.1 mm 5 m/s 762 mmHg 62%
14:00 +16°C° 0.1 mm 5 m/s 762 mmHg 61%
15:00 +15°C° 0.1 mm 4 m/s 762 mmHg 63%
16:00 +15°C° 0.1 mm 4 m/s 762 mmHg 65%
17:00 +16°C° 0.1 mm 3 m/s 762 mmHg 68%
18:00 +14°C° 0 mm 3 m/s 763 mmHg 70%
19:00 +13°C° 0 mm 3 m/s 763 mmHg 71%
20:00 +13°C° 0 mm 2 m/s 763 mmHg 73%
21:00 +13°C° 0 mm 2 m/s 763 mmHg 74%
22:00 +12°C° 0 mm 2 m/s 763 mmHg 75%
23:00 +12°C° 0 mm 1 m/s 763 mmHg 76%

19 Agosto, Quarta-feira

Tempo Temperatura Precipitação Vento Pressão Humidade
00:00 +12°C° 0 mm 1 m/s 763 mmHg 76%
01:00 +12°C° 0 mm 1 m/s 763 mmHg 75%
02:00 +12°C° 0 mm 1 m/s 763 mmHg 75%
03:00 +11°C° 0 mm 1 m/s 763 mmHg 76%
04:00 +11°C° 0 mm 1 m/s 763 mmHg 77%
05:00 +11°C° 0 mm 1 m/s 763 mmHg 77%
06:00 +11°C° 0 mm 1 m/s 763 mmHg 76%
07:00 +10°C° 0 mm 2 m/s 764 mmHg 75%
08:00 +10°C° 0 mm 2 m/s 764 mmHg 74%
09:00 +13°C° 0 mm 1 m/s 764 mmHg 67%
10:00 +15°C° 0 mm 1 m/s 764 mmHg 60%
11:00 +18°C° 0 mm 1 m/s 764 mmHg 52%
12:00 +19°C° 0 mm 1 m/s 764 mmHg 51%
13:00 +19°C° 0 mm 1 m/s 763 mmHg 49%
14:00 +19°C° 0 mm 1 m/s 763 mmHg 48%
15:00 +19°C° 0 mm 1 m/s 763 mmHg 53%
16:00 +18°C° 0 mm 1 m/s 763 mmHg 57%
17:00 +17°C° 0 mm 2 m/s 763 mmHg 62%
18:00 +16°C° 0 mm 2 m/s 763 mmHg 63%
19:00 +15°C° 0 mm 1 m/s 763 mmHg 65%
20:00 +14°C° 0 mm 1 m/s 764 mmHg 67%
21:00 +14°C° 0 mm 1 m/s 764 mmHg 66%
22:00 +14°C° 0 mm 1 m/s 764 mmHg 66%
23:00 +13°C° 0 mm 1 m/s 764 mmHg 65%

20 Agosto, Quinta-feira

Tempo Temperatura Precipitação Vento Pressão Humidade
00:00 +13°C° 0 mm 2 m/s 764 mmHg 66%
01:00 +12°C° 0 mm 2 m/s 764 mmHg 66%
02:00 +12°C° 0 mm 2 m/s 763 mmHg 67%
03:00 +12°C° 0 mm 2 m/s 763 mmHg 67%
04:00 +10°C° 0 mm 2 m/s 763 mmHg 67%
05:00 +10°C° 0 mm 3 m/s 763 mmHg 68%
06:00 +10°C° 0 mm 3 m/s 764 mmHg 68%
07:00 +10°C° 0 mm 3 m/s 764 mmHg 68%
08:00 +11°C° 0 mm 3 m/s 765 mmHg 68%
09:00 +13°C° 0 mm 3 m/s 764 mmHg 64%
10:00 +14°C° 0 mm 3 m/s 764 mmHg 59%
11:00 +17°C° 0 mm 3 m/s 764 mmHg 54%
12:00 +18°C° 0 mm 3 m/s 764 mmHg 51%
13:00 +19°C° 0 mm 2 m/s 763 mmHg 48%
14:00 +21°C° 0 mm 1 m/s 763 mmHg 45%
15:00 +19°C° 0 mm 2 m/s 763 mmHg 49%
16:00 +19°C° 0 mm 2 m/s 763 mmHg 53%
17:00 +18°C° 0 mm 2 m/s 763 mmHg 57%
18:00 +17°C° 0 mm 2 m/s 763 mmHg 60%
19:00 +16°C° 0 mm 3 m/s 764 mmHg 62%
20:00 +14°C° 0 mm 3 m/s 764 mmHg 65%
21:00 +13°C° 0 mm 3 m/s 764 mmHg 65%
22:00 +13°C° 0 mm 4 m/s 764 mmHg 64%
23:00 +13°C° 0 mm 4 m/s 764 mmHg 64%
Mostrar mais